Find Kosmos-864

NORAD ID: 9509 Int'l Des: 1976-108 Owner: VMF Country: SU operational
LEOCIRCULARPOLAR

Live Position

Loading 3D Globe...

About Kosmos-864

Description loading...

Upcoming Passes

Passes for default location (London). Set your location on the main map for personalized predictions.

Altitude History

Loading altitude history...

Two-Line Element Set

1 9509U 76108A 26104.63824704 .00000037 00000-0 23015-4 0 9997
2 9509 82.9438 196.6972 0028886 324.2001 147.8855 13.75575814481707
Epoch: Apr 14, 2026 • Age: 13 hours

Current Status

Altitude 1000.2 km
Velocity 7.34 km/s
Sub-Earth Point 6.31°N, 114.65°E
Type other

Most Searched